GW4210 Weather Reports


time (UTC)temp
C
wind
direction
speed
KPH
gust
KPH
rain 1hr
cm
rain 24hr
cm
rain mn
cm
humidity
%
barometer
mb
20260504151026 26 0 0.0 0.0 0.00 0.00 0.00 80 1012.4
20260504150524 26 0 0.0 0.0 0.00 0.00 0.00 80 1012.4
20260504141024 27 40 1.6 1.6 0.00 0.00 0.00 76 1012.3
20260504140524 27 0 0.0 3.2 0.00 0.00 0.00 74 1012.2
20260504130525 28 118 3.2 4.8 0.00 0.00 0.00 70 1011.6
20260504110527 29 150 16.1 24.1 0.00 0.00 0.00 63 1010.5
20260504100524 31 136 16.1 22.5 0.00 0.00 0.00 59 1009.6
20260504081542 34 142 16.1 27.4 0.00 0.00 0.00 54 1008.8
20260504081028 34 128 17.7 29.0 0.00 0.00 0.00 52 1008.8
20260504080525 34 151 19.3 29.0 0.00 0.00 0.00 54 1008.9
20260504050521 34 132 11.3 19.3 0.00 0.00 0.00 53 1010.4
20260504050105 34 162 12.9 20.9 0.00 0.00 0.00 56 1010.5
20260504045524 34 141 12.9 20.9 0.00 0.00 0.00 51 1010.5
20260504045025 34 176 9.7 24.1 0.00 0.00 0.00 54 1010.7
20260504044536 34 176 14.5 24.1 0.00 0.00 0.00 55 1010.8
20260504044022 34 101 16.1 20.9 0.00 0.00 0.00 53 1010.8
20260504043524 34 153 9.7 17.7 0.00 0.00 0.00 55 1010.9
20260504043041 33 169 8.0 19.3 0.00 0.00 0.00 53 1011.0
20260504042520 33 173 11.3 19.3 0.00 0.00 0.00 53 1011.2
20260504042020 33 167 9.7 17.7 0.00 0.00 0.00 54 1011.2
20260504041540 33 143 11.3 20.9 0.00 0.00 0.00 53 1011.4
20260504041024 34 142 4.8 20.9 0.00 0.00 0.00 53 1011.5
20260504040521 34 165 6.4 19.3 0.00 0.00 0.00 53 1011.6
20260504040043 34 111 8.0 19.3 0.00 0.00 0.00 53 1011.5
20260504035521 33 118 12.9 19.3 0.00 0.00 0.00 55 1011.6
20260504035023 33 156 11.3 19.3 0.00 0.00 0.00 53 1011.6
20260504034548 34 182 6.4 20.9 0.00 0.00 0.00 58 1011.8
20260504034027 34 84 8.0 20.9 0.00 0.00 0.00 54 1012.0
20260504033530 33 115 6.4 24.1 0.00 0.00 0.00 53 1012.1
20260504033036 34 113 6.4 24.1 0.00 0.00 0.00 54 1012.2
20260504032521 33 97 17.7 24.1 0.00 0.00 0.00 55 1012.4
20260504032021 33 69 14.5 24.1 0.00 0.00 0.00 53 1012.4
20260504031602 33 104 14.5 22.5 0.00 0.00 0.00 53 1012.3
20260504031023 33 103 8.0 19.3 0.00 0.00 0.00 56 1012.3
20260504030525 33 115 6.4 17.7 0.00 0.00 0.00 56 1012.3
20260504030042 34 26 6.4 17.7 0.00 0.00 0.00 56 1012.5
20260504025525 34 82 6.4 17.7 0.00 0.00 0.00 55 1012.5
20260504025023 33 55 6.4 19.3 0.00 0.00 0.00 55 1012.6
20260504024543 33 41 8.0 19.3 0.00 0.00 0.00 58 1012.8
20260504024026 32 98 4.8 16.1 0.00 0.00 0.00 59 1012.8
20260504023522 32 139 9.7 17.7 0.00 0.00 0.00 57 1012.9
20260504023037 32 132 11.3 17.7 0.00 0.00 0.00 60 1013.0
20260504022523 32 122 6.4 16.1 0.00 0.00 0.00 59 1013.1
20260504022021 32 156 4.8 12.9 0.00 0.00 0.00 56 1013.2
20260504021542 32 126 4.8 14.5 0.00 0.00 0.00 58 1013.2
20260504021024 32 332 3.2 14.5 0.00 0.00 0.00 58 1013.2
20260504020523 31 161 4.8 19.3 0.00 0.00 0.00 58 1013.2
20260504020041 31 85 3.2 3.2 0.00 0.00 0.00 59 1013.3
20260504015524 31 144 8.0 14.5 0.00 0.00 0.00 62 1013.3
20260504015024 31 159 4.8 11.3 0.00 0.00 0.00 60 1013.3
20260504014543 31 178 4.8 12.9 0.00 0.00 0.00 62 1013.3
20260504014023 31 112 1.6 12.9 0.00 0.00 0.00 62 1013.3
20260504013522 31 96 3.2 12.9 0.00 0.00 0.00 63 1013.3
20260504013041 31 165 1.6 8.0 0.00 0.00 0.00 64 1013.2
20260504012522 31 173 4.8 9.7 0.00 0.00 0.00 66 1013.4
20260504012023 30 94 3.2 9.7 0.00 0.00 0.00 64 1013.4
20260504011537 30 183 6.4 9.7 0.00 0.00 0.00 65 1013.4
20260504011021 30 202 3.2 8.0 0.00 0.00 0.00 64 1013.4
20260504010523 30 174 3.2 8.0 0.00 0.00 0.00 67 1013.4
20260504010046 30 178 3.2 8.0 0.00 0.00 0.00 65 1013.4
20260504005524 30 161 4.8 9.7 0.00 0.00 0.00 65 1013.4
20260504005021 30 191 6.4 9.7 0.00 0.00 0.00 67 1013.4
20260504004541 30 153 3.2 11.3 0.00 0.00 0.00 67 1013.4
20260504004021 29 153 8.0 11.3 0.00 0.00 0.00 67 1013.4
20260504003522 29 192 6.4 11.3 0.00 0.00 0.00 70 1013.4
20260504003045 29 165 4.8 11.3 0.00 0.00 0.00 70 1013.3
20260504002523 29 195 6.4 11.3 0.00 0.00 0.00 69 1013.4
20260504002020 29 173 4.8 11.3 0.00 0.00 0.00 72 1013.3
20260504001556 29 159 6.4 11.3 0.00 0.00 0.00 72 1013.3
20260504001022 28 156 4.8 12.9 0.00 0.00 0.00 72 1013.2
20260504000521 28 111 6.4 12.9 0.00 0.00 0.00 70 1013.1
20260504000037 28 146 1.6 9.7 0.00 0.00 0.00 73 1013.0
20260503235521 28 159 4.8 9.7 0.00 0.00 0.00 74 1013.0
20260503235021 28 115 3.2 6.4 0.00 0.00 0.00 76 1013.0
20260503234541 28 136 3.2 6.4 0.00 0.00 0.00 77 1012.9
20260503234023 28 115 1.6 4.8 0.00 0.00 0.00 77 1012.8
20260503233521 28 107 1.6 6.4 0.00 0.00 0.00 77 1012.8
20260503233040 27 97 3.2 6.4 0.00 0.00 0.00 78 1012.7
20260503232523 27 115 1.6 4.8 0.00 0.00 0.00 78 1012.7
20260503232023 27 102 1.6 4.8 0.00 0.00 0.00 79 1012.7
20260503231548 27 103 1.6 4.8 0.00 0.00 0.00 80 1012.6
20260503231024 27 0 0.0 4.8 0.00 0.00 0.00 81 1012.6
20260503230522 26 0 1.6 4.8 0.00 0.00 0.00 83 1012.6
20260503230038 26 352 1.6 4.8 0.00 0.00 0.00 84 1012.5
20260503225528 26 0 0.0 3.2 0.00 0.00 0.00 85 1012.5
20260503225025 26 0 0.0 3.2 0.00 0.00 0.00 87 1012.4
20260503224536 26 12 1.6 3.2 0.00 0.00 0.00 88 1012.4
20260503224025 25 343 1.6 3.2 0.00 0.00 0.00 88 1012.4
20260503223524 25 0 0.0 3.2 0.00 0.00 0.00 87 1012.3
20260503223043 25 0 0.0 1.6 0.00 0.00 0.00 87 1012.2
20260503222524 25 109 0.0 1.6 0.00 0.00 0.00 88 1012.2
20260503222020 25 0 0.0 3.2 0.00 0.00 0.00 88 1012.1
20260503221540 25 109 1.6 3.2 0.00 0.00 0.00 88 1012.0
20260503221020 25 109 0.0 3.2 0.00 0.00 0.00 89 1012.0
20260503220526 25 0 0.0 3.2 0.00 0.00 0.00 89 1012.0
20260503220040 25 0 0.0 3.2 0.00 0.00 0.00 89 1011.9
20260503215521 25 109 0.0 3.2 0.00 0.00 0.00 90 1011.9
20260503215023 25 0 0.0 3.2 0.00 0.00 0.00 90 1011.9
20260503214551 25 109 0.0 3.2 0.00 0.00 0.00 89 1011.9
20260503214024 25 109 0.0 3.2 0.00 0.00 0.00 89 1011.8
20260503213524 25 109 0.0 3.2 0.00 0.00 0.00 88 1011.8
20260503213102 25 0 0.0 3.2 0.00 0.00 0.00 88 1011.8
20260503212521 25 0 0.0 3.2 0.00 0.00 0.00 88 1011.9
20260503212024 25 109 0.0 3.2 0.00 0.00 0.00 88 1011.8
20260503211602 25 109 0.0 4.8 0.00 0.00 0.00 88 1011.8
20260503211026 25 86 1.6 4.8 0.00 0.00 0.00 88 1011.8
20260503210521 25 90 1.6 3.2 0.00 0.00 0.00 88 1011.8
20260503210040 25 95 1.6 3.2 0.00 0.00 0.00 88 1011.7
20260503205523 25 95 0.0 3.2 0.00 0.00 0.00 88 1011.7
20260503205024 24 0 0.0 3.2 0.00 0.00 0.00 88 1011.6
20260503204552 24 0 0.0 3.2 0.00 0.00 0.00 87 1011.6
20260503204020 25 92 0.0 4.8 0.00 0.00 0.00 87 1011.5
20260503203520 25 51 1.6 6.4 0.00 0.00 0.00 87 1011.5
20260503203042 25 64 1.6 6.4 0.00 0.00 0.00 87 1011.5
20260503202521 25 52 1.6 6.4 0.00 0.00 0.00 87 1011.5
20260503202021 25 34 1.6 4.8 0.00 0.00 0.00 86 1011.4
20260503201541 25 31 1.6 3.2 0.00 0.00 0.00 86 1011.5
20260503201022 25 14 1.6 3.2 0.00 0.00 0.00 87 1011.4
20260503200521 25 46 1.6 3.2 0.00 0.00 0.00 87 1011.4
20260503200041 25 46 0.0 3.2 0.00 0.00 0.00 87 1011.4
20260503195523 25 0 0.0 3.2 0.00 0.00 0.00 88 1011.3
20260503195021 25 0 0.0 3.2 0.00 0.00 0.00 87 1011.4
20260503194540 25 0 0.0 3.2 0.00 0.00 0.00 88 1011.3
20260503194021 25 0 0.0 3.2 0.00 0.00 0.00 88 1011.2
20260503193521 25 46 0.0 3.2 0.00 0.00 0.00 88 1011.0
20260503193046 25 46 0.0 3.2 0.00 0.00 0.00 87 1011.1
20260503192522 25 0 0.0 3.2 0.00 0.00 0.00 88 1011.0
20260503192022 25 0 0.0 0.0 0.00 0.00 0.00 88 1011.1
20260503191556 25 0 0.0 0.0 0.00 0.00 0.00 87 1011.0
20260503191022 25 0 0.0 3.2 0.00 0.00 0.00 87 1011.0
20260503190521 25 0 0.0 3.2 0.00 0.00 0.00 87 1011.0
20260503190041 25 0 0.0 3.2 0.00 0.00 0.00 87 1011.0
20260503185522 25 46 0.0 3.2 0.00 0.00 0.00 87 1011.0
20260503185022 25 46 0.0 3.2 0.00 0.00 0.00 87 1011.1
20260503184551 25 0 0.0 3.2 0.00 0.00 0.00 87 1011.1
20260503184022 25 0 0.0 3.2 0.00 0.00 0.00 86 1011.1
20260503183522 25 0 0.0 3.2 0.00 0.00 0.00 86 1011.1
20260503183046 25 0 0.0 3.2 0.00 0.00 0.00 86 1011.2
20260503182520 25 46 1.6 3.2 0.00 0.00 0.00 85 1011.1
20260503182021 25 273 0.0 3.2 0.00 0.00 0.00 86 1011.1
20260503181540 25 0 0.0 3.2 0.00 0.00 0.00 86 1011.1
20260503181022 25 273 0.0 3.2 0.00 0.00 0.00 86 1011.1
20260503180525 25 0 0.0 3.2 0.00 0.00 0.00 86 1011.0
20260503180040 25 0 0.0 3.2 0.00 0.00 0.00 87 1011.0
20260503175524 25 273 0.0 3.2 0.00 0.00 0.00 87 1011.1
20260503175024 25 0 0.0 3.2 0.00 0.00 0.00 88 1011.1
20260503174551 25 273 1.6 3.2 0.00 0.00 0.00 87 1011.1
20260503174021 25 352 0.0 3.2 0.00 0.00 0.00 86 1011.2
20260503173521 25 352 0.0 3.2 0.00 0.00 0.00 86 1011.2
20260503173043 25 352 0.0 3.2 0.00 0.00 0.00 85 1011.2
20260503172523 25 352 0.0 3.2 0.00 0.00 0.00 85 1011.2
20260503172020 25 0 0.0 3.2 0.00 0.00 0.00 85 1011.2
20260503171541 25 0 0.0 3.2 0.00 0.00 0.00 84 1011.2
20260503171029 25 352 0.0 3.2 0.00 0.00 0.00 85 1011.3
20260503170523 25 352 0.0 3.2 0.00 0.00 0.00 85 1011.2